Find Starlink 32905

NORAD ID: 62923 Int'l Des: 2025-027 Owner: SPXS Country: US Constellation: starlink operational
LEOCIRCULAR

リアルタイム位置

3D地球を読み込み中...

Starlink 32905について

説明を読み込み中...

次回通過

Passes for default location (London). Set your location on the main map for personalized predictions.

高度履歴

Loading altitude history...

軌道要素

1 62923U 25027S 26125.40411326 .00035044 00000-0 12766-2 0 9995
2 62923 42.9948 168.7769 0001061 264.3742 95.6989 15.27589863 70210
Epoch: May 5, 2026 • Age: 8 hours

現在のステータス

高度 482.2 km
速度 7.63 km/s
衛星直下点 7.85°N, 47.84°E
打ち上げ日 Feb 8, 2025
運用期間 1.2 years
タイプ internet

技術仕様

分類 Payload
質量 730.00 kg
乾燥質量 700.00 kg
総質量 730.00 kg
長さ 0.30 m
直径 4.10 m
スパン 29.00 m
形状 Box + pan
製造者 SPXS
バスタイプ Starlink V2M
フェーズステータス In Orbit
所有者/国 SPXS/US

Most Searched